Flag for San Marino Weather past 2 weeks in San Marino, San Marino

Now
45 °F

Fog.


Feels Like: 43 °F
Forecast: 40 / 46 °F
Wind: 3 mph from West

Location: Rimini Airport

Current Time: Dec 22, 2014 at 2:12:54 PM

Latest Report: Dec 22, 2014 at 1:45 PM


Visibility: 2 mi

Pressure: 30.42 "Hg

Humidity: 93%

Dew point: 43 °F

Location of San MarinoLocation

Historic Weather in San Marino — Graph

°F

San Marino temperature yesterday

Maximum temperature yesterday: 50 °F (at 3:45 PM)
Minimum temperature yesterday: 39 °F (at 1:15 AM)
Average temperature yesterday: 46 °F

Past Weeks' High & Low Weather Summary

 TemperatureHumidityPressure
High63 °F (Dec 13, 1:45 PM)100% (Dec 7, 12:15 PM)30.48 "Hg (Dec 7, 12:15 PM)
Low34 °F (Dec 11, 2:15 AM)50% (Dec 11, 12:15 PM)29.74 "Hg (Dec 16, 3:45 PM)
Average47 °F92%30.11 "Hg
* Reported Dec 7 12:15 PM — Dec 22 12:45 PM, San Marino, Weather by CustomWeather, © 2014

Note: Actual official high and low records may vary slightly from our data, if they occured in-between our weather recording intervals... More about our weather records

Advertising

San Marino weather history for previous 24 hours

 ConditionsComfort  
Time TempWeatherWind HumidityBarometerVisibility
12:45 PM
Dec 22
43 °FFog.2 mph100%30.42 "Hg1 mi
12:15 PM43 °FFog.2 mph100%30.42 "Hg1 mi
11:45 AM43 °FFog.2 mph100%30.42 "Hg1 mi
11:15 AM45 °FFog.6 mph100%30.45 "Hg1 mi
10:45 AM45 °FFog.5 mph100%30.45 "Hg2 mi
10:15 AM43 °FFog.5 mph100%30.45 "Hg2 mi
9:45 AM43 °FFog.3 mph100%30.42 "Hg1 mi
9:15 AM43 °FFog.3 mph100%30.42 "Hg1 mi
8:45 AM43 °FFog.2 mph100%30.42 "Hg1 mi
8:15 AM45 °FFog.3 mph100%30.42 "Hg1 mi
7:45 AM45 °FFog.2 mph100%30.42 "Hg1 mi
7:15 AM45 °FFog.3 mph100%30.42 "Hg1 mi
6:45 AM45 °FFog.3 mph100%30.42 "Hg1 mi
6:15 AM45 °FFog.2 mph100%30.42 "Hg1 mi
5:45 AM45 °FFog.2 mph100%30.42 "Hg1 mi
5:15 AM45 °FFog.2 mph100%30.45 "Hg1 mi
4:45 AM45 °FFog.3 mph100%30.45 "Hg1 mi
4:15 AM45 °FFog.2 mph100%30.45 "Hg1 mi
3:45 AM45 °FSnow. Overcast.2 mph100%30.45 "Hg1 mi
3:15 AM45 °FSnow. Overcast.2 mph100%30.48 "Hg1 mi
2:45 AM43 °FFog.No wind100%30.48 "Hg1 mi
2:15 AM45 °FFog.2 mph100%30.48 "Hg1 mi
1:45 AM45 °FFog.2 mph100%30.48 "Hg0 mi
1:15 AM45 °FFog.3 mph100%30.48 "Hg0 mi
12:15 AM45 °FFog.5 mph100%30.48 "Hg0 mi
11:45 PM
Dec 21
45 °FFog.5 mph100%30.48 "Hg0 mi
11:15 PM41 °FFog.5 mph100%30.48 "Hg1 mi
10:45 PM41 °FFog.2 mph100%30.45 "Hg1 mi
10:15 PM43 °FFog.2 mph100%30.45 "Hg0 mi
9:45 PM43 °FFog.No wind100%30.45 "Hg0 mi
9:15 PM45 °FFog.2 mph100%30.45 "Hg0 mi
8:45 PM45 °FFog.No wind100%30.42 "Hg1 mi
8:15 PM45 °FFog.No wind100%30.42 "Hg2 mi
7:45 PM45 °FFog.3 mph100%30.42 "Hg2 mi
7:15 PM46 °FFog.No wind100%30.42 "Hg3 mi
6:45 PM48 °FFog.6 mph100%30.42 "Hg3 mi
6:15 PM48 °FFog.5 mph100%30.42 "Hg2 mi
5:45 PM46 °FFog.5 mph100%30.42 "Hg2 mi
5:15 PM48 °FFog.5 mph100%30.42 "Hg2 mi
4:45 PM50 °FFog.5 mph94%30.42 "Hg1 mi
4:15 PM50 °FFog.5 mph94%30.42 "Hg2 mi
3:45 PM50 °FFog.5 mph94%30.42 "Hg3 mi
3:15 PM48 °FFog.2 mph100%30.39 "Hg3 mi
2:45 PM48 °FFog.5 mph100%30.39 "Hg3 mi
2:15 PM48 °FFog.5 mph100%30.39 "Hg2 mi
Weather by CustomWeather, © 2014

See weather overviewHow to use our weather pages